CW9861 Weather Reports


time (UTC)temp
C
wind
direction
speed
KPH
gust
KPH
rain 1hr
cm
rain 24hr
cm
rain mn
cm
humidity
%
barometer
mb
20260504202458 23 271 6.4 30.6 0.00 0.00 0.00 35 997.9
20260504201958 23 234 11.3 30.6 0.00 0.00 0.00 34 998.0
20260504201458 23 219 8.0 20.9 0.00 0.00 0.00 33 998.0
20260504200958 23 224 9.7 30.6 0.00 0.00 0.00 35 998.1
20260504200459 23 271 12.9 30.6 0.00 0.00 0.00 34 998.2
20260504195958 23 221 11.3 27.4 0.00 0.00 0.00 32 998.4
20260504195458 23 259 9.7 27.4 0.00 0.00 0.00 32 998.3
20260504194959 23 235 6.4 30.6 0.00 0.00 0.00 32 998.3
20260504194458 23 313 14.5 30.6 0.00 0.00 0.00 29 998.4
20260504193958 23 313 11.3 27.4 0.00 0.00 0.00 32 998.5
20260504193458 23 337 12.9 25.7 0.00 0.00 0.00 28 998.5
20260504192958 23 223 11.3 30.6 0.00 0.00 0.00 30 998.5
20260504192458 23 291 11.3 30.6 0.00 0.00 0.00 30 998.4
20260504191958 24 280 11.3 32.2 0.00 0.00 0.00 27 998.5
20260504191457 23 211 17.7 35.4 0.00 0.00 0.00 28 998.5
20260504190958 23 317 14.5 35.4 0.00 0.00 0.00 27 998.4
20260504190458 23 188 16.1 33.8 0.00 0.00 0.00 30 998.4
20260504185958 23 222 11.3 33.8 0.00 0.00 0.00 28 998.3
20260504185458 24 213 14.5 33.8 0.00 0.00 0.00 30 998.3
20260504184957 23 343 16.1 30.6 0.00 0.00 0.00 27 998.4
20260504184458 23 220 16.1 27.4 0.00 0.00 0.00 28 998.4
20260504183958 24 232 14.5 27.4 0.00 0.00 0.00 29 998.4
20260504180457 23 313 16.1 33.8 0.00 0.00 0.00 27 998.3
20260504175958 23 280 12.9 25.7 0.00 0.00 0.00 28 998.5
20260504175458 24 288 9.7 24.1 0.00 0.00 0.00 27 998.5
20260504174958 24 206 11.3 29.0 0.00 0.00 0.00 27 998.7
20260504174457 24 303 11.3 29.0 0.00 0.00 0.00 30 998.9
20260504173958 24 299 11.3 24.1 0.00 0.00 0.00 30 998.7
20260504173457 23 234 12.9 20.9 0.00 0.00 0.00 31 998.8
20260504172958 24 240 4.8 33.8 0.00 0.00 0.00 33 998.9
20260504172458 23 320 4.8 33.8 0.00 0.00 0.00 32 998.9
20260504171958 23 196 8.0 24.1 0.00 0.00 0.00 34 999.0
20260504171457 23 286 11.3 27.4 0.00 0.00 0.00 31 999.1
20260504170957 23 313 11.3 27.4 0.00 0.00 0.00 32 999.1
20260504170457 23 9 11.3 27.4 0.00 0.00 0.00 34 999.2
20260504140959 17 200 6.4 20.9 0.00 0.00 0.00 62 1001.1
20260504140459 16 232 8.0 20.9 0.00 0.00 0.00 63 1001.1
20260504130458 13 230 8.0 16.1 0.00 0.00 0.00 72 1001.8
20260504110459 8 232 1.6 4.8 0.00 0.00 0.00 85 1001.4
20260504081958 9 224 1.6 4.8 0.00 0.00 0.00 80 1001.9
20260504081459 9 295 1.6 4.8 0.00 0.00 0.00 80 1002.0
20260504080958 9 307 0.0 4.8 0.00 0.00 0.00 80 1002.1
20260504080458 9 247 1.6 3.2 0.00 0.00 0.00 80 1002.1
20260504050457 10 162 4.8 12.9 0.00 0.00 0.00 77 1003.7
20260504045959 10 242 6.4 14.5 0.00 0.00 0.00 77 1003.8
20260504045458 10 210 6.4 16.1 0.00 0.00 0.00 77 1003.9
20260504044958 10 223 4.8 14.5 0.00 0.00 0.00 77 1003.9
20260504044458 10 226 6.4 14.5 0.00 0.00 0.00 77 1004.0
20260504043958 10 165 4.8 14.5 0.00 0.00 0.00 76 1004.0
20260504043459 10 180 3.2 16.1 0.00 0.00 0.00 76 1004.0
20260504042958 10 180 6.4 16.1 0.00 0.00 0.00 76 1004.1
20260504042458 10 266 6.4 14.5 0.00 0.00 0.00 76 1004.1
20260504041958 10 238 6.4 14.5 0.00 0.00 0.00 76 1004.2
20260504041458 10 180 4.8 14.5 0.00 0.00 0.00 76 1004.2
20260504041000 10 220 6.4 20.9 0.00 0.00 0.00 76 1004.2
20260504040458 10 271 9.7 20.9 0.00 0.00 0.00 76 1004.2
20260504035959 10 218 3.2 16.1 0.00 0.00 0.00 75 1004.2
20260504035458 10 180 4.8 20.9 0.00 0.00 0.00 75 1004.3
20260504034959 10 186 8.0 20.9 0.00 0.00 0.00 75 1004.3
20260504034458 10 266 9.7 16.1 0.00 0.00 0.00 75 1004.4
20260504033958 10 166 6.4 16.1 0.00 0.00 0.00 74 1004.6
20260504033458 10 217 8.0 16.1 0.00 0.00 0.00 74 1004.7
20260504015000 11 176 1.6 12.9 0.00 0.00 0.00 68 1004.9
20260504014459 11 234 3.2 9.7 0.00 0.00 0.00 68 1005.0
20260504013959 11 225 1.6 11.3 0.00 0.00 0.00 67 1004.9
20260504013459 11 210 1.6 16.1 0.00 0.00 0.00 67 1004.9
20260504013000 11 214 6.4 16.1 0.00 0.00 0.00 67 1005.0
20260504012459 11 226 4.8 12.9 0.00 0.00 0.00 67 1004.9
20260504011959 11 228 4.8 12.9 0.00 0.00 0.00 67 1004.9
20260504011459 12 183 4.8 11.3 0.00 0.00 0.00 66 1004.9
20260504010959 12 188 1.6 17.7 0.00 0.00 0.00 66 1005.0
20260504010459 12 239 6.4 16.1 0.00 0.00 0.00 66 1005.0
20260504005959 12 157 3.2 16.1 0.00 0.00 0.00 66 1004.9
20260504005458 12 188 6.4 17.7 0.00 0.00 0.00 66 1004.9
20260504004958 12 217 8.0 17.7 0.00 0.00 0.00 66 1004.9
20260504004458 12 230 3.2 17.7 0.00 0.00 0.00 65 1005.1
20260504003958 12 228 6.4 17.7 0.00 0.00 0.00 65 1005.1
20260504003458 12 228 4.8 9.7 0.00 0.00 0.00 65 1005.1
20260504002958 12 190 3.2 12.9 0.00 0.00 0.00 64 1005.0
20260504002458 12 168 4.8 12.9 0.00 0.00 0.00 64 1005.1
20260504001958 12 240 4.8 16.1 0.00 0.00 0.00 63 1005.1
20260504001459 12 252 6.4 22.5 0.00 0.00 0.00 63 1005.1
20260504000958 12 198 12.9 22.5 0.00 0.00 0.00 63 1005.2
20260504000459 12 236 3.2 25.7 0.00 0.00 0.00 63 1005.2
20260503235959 12 249 12.9 25.7 0.00 0.00 0.00 62 1005.3
20260503235458 12 221 9.7 17.7 0.00 0.00 0.00 63 1005.4
20260503234958 12 217 4.8 17.7 0.00 0.00 0.00 63 1005.5
20260503234458 12 188 6.4 17.7 0.00 0.00 0.00 63 1005.4
20260503233958 12 210 4.8 16.1 0.00 0.00 0.00 63 1005.5
20260503233458 12 211 1.6 22.5 0.00 0.00 0.00 62 1005.4
20260503232958 12 201 11.3 22.5 0.00 0.00 0.00 62 1005.6
20260503232458 13 196 6.4 14.5 0.00 0.00 0.00 61 1005.6
20260503231958 13 184 4.8 17.7 0.00 0.00 0.00 62 1005.6
20260503213501 12 303 9.7 22.5 0.00 0.00 0.00 66 1006.9
20260503212959 12 235 8.0 16.1 0.00 0.00 0.00 67 1007.0
20260503212501 12 220 8.0 16.1 0.00 0.00 0.00 67 1007.0
20260503211959 12 236 4.8 22.5 0.00 0.00 0.00 69 1007.0
20260503211459 12 211 6.4 24.1 0.00 0.00 0.00 68 1007.1
20260503210959 12 266 8.0 24.1 0.00 0.00 0.00 69 1007.1
20260503210500 12 210 12.9 22.5 0.00 0.00 0.00 68 1007.2
20260503210000 12 211 8.0 25.7 0.00 0.00 0.00 68 1007.3
20260503205458 11 233 12.9 27.4 0.00 0.00 0.00 69 1007.3
20260503204959 11 194 11.3 27.4 0.00 0.00 0.00 70 1007.4
20260503204458 11 224 11.3 24.1 0.00 0.00 0.00 71 1007.5
20260503203959 11 153 11.3 24.1 0.00 0.00 0.00 70 1007.7
20260503203459 11 235 11.3 29.0 0.00 0.00 0.00 69 1007.7
20260503202959 11 234 16.1 29.0 0.00 0.00 0.00 68 1007.8